Total_Precipitation_Accumulation
0.02 0.06 0.13 0.21 0.20 0.14 0.10 0.07 0.09 0.12 0.20 0.32 0.52 0.65 0.71 0.71 0.68 0.63 0.57 0.61 0.67 0.76 0.83 0.90 0.96 0.95 0.95 1.04 1.05 1.17 1.45 1.56 1.65 1.63 1.66 1.77 1.84 1.79 1.81 1.80 1.76 1.93 2.00 1.99
0.04 0.06 0.08 0.12 0.16 0.13 0.10 0.09 0.09 0.11 0.22 0.36 0.56 0.64 0.73 0.69 0.65 0.64 0.69 0.71 0.78 0.82 0.88 0.92 0.97 1.06 1.12 1.14 1.16 1.36 1.76 2.01 2.10 2.12 2.14 2.17 2.20 2.19 2.20 2.15 2.25 2.31 2.22 2.18
0.06 0.08 0.10 0.15 0.15 0.13 0.12 0.11 0.12 0.19 0.30 0.41 0.56 0.72 0.82 0.74 0.61 0.59 0.63 0.68 0.74 0.87 0.98 0.98 0.99 1.06 1.17 1.28 1.36 1.49 1.76 1.94 2.03 2.12 2.21 2.34 2.38 2.44 2.45 2.47 2.47 2.47 2.51 2.44
0.12 0.13 0.20 0.20 0.21 0.21 0.19 0.20 0.25 0.36 0.49 0.53 0.57 0.67 0.71 0.61 0.59 0.63 0.66 0.75 0.86 0.87 0.99 1.07 1.13 1.23 1.43 1.64 1.79 1.85 1.96 2.15 2.25 2.21 2.23 2.30 2.32 2.27 2.29 2.44 2.47 2.41 2.31 2.20
0.23 0.23 0.23 0.27 0.32 0.31 0.31 0.42 0.48 0.61 0.74 0.81 0.78 0.75 0.84 0.77 0.72 0.73 0.82 0.91 1.08 1.22 1.21 1.28 1.40 1.53 1.65 1.92 2.05 2.09 2.10 2.28 2.41 2.49 2.55 2.45 2.34 2.35 2.39 2.43 2.29 2.20 2.10 2.07
0.36 0.40 0.42 0.39 0.43 0.41 0.46 0.80 0.75 0.83 0.94 1.01 1.07 1.29 1.28 1.01 0.98 0.88 0.86 0.98 1.09 1.28 1.42 1.44 1.60 1.72 1.77 1.87 1.99 2.09 2.08 2.16 2.32 2.41 2.57 2.68 2.61 2.62 2.57 2.47 2.34 2.26 2.19 2.20
0.46 0.52 0.52 0.47 0.45 0.50 0.92 1.30 1.11 1.06 1.12 1.20 1.30 1.33 1.22 1.06 1.10 1.13 0.99 0.97 1.01 1.09 1.26 1.36 1.44 1.53 1.70 1.80 1.80 1.90 1.94 1.93 2.07 2.28 2.45 2.57 2.70 2.73 2.73 2.65 2.52 2.32 2.17 2.11
0.64 0.83 0.94 0.65 0.56 0.84 1.15 1.16 1.29 1.21 1.21 1.30 1.35 1.37 1.34 1.27 1.22 1.16 1.08 1.00 1.03 1.10 1.19 1.28 1.42 1.63 1.81 1.86 1.84 1.84 1.89 1.99 2.11 2.29 2.38 2.39 2.45 2.52 2.63 2.62 2.56 2.47 2.23 2.03
0.99 1.16 1.06 0.77 0.81 0.90 0.93 1.10 1.21 1.24 1.25 1.30 1.33 1.31 1.22 1.11 1.10 1.16 1.09 1.08 1.04 1.10 1.25 1.44 1.62 1.81 2.01 2.01 2.02 2.03 2.06 2.12 2.19 2.28 2.35 2.39 2.38 2.39 2.39 2.35 2.24 2.16 2.04 1.95
1.32 1.47 1.25 1.05 0.98 1.01 1.08 1.20 1.30 1.40 1.48 1.40 1.28 1.19 1.17 1.14 1.10 1.17 1.17 1.12 1.10 1.11 1.21 1.41 1.54 1.63 1.82 1.93 1.97 2.10 2.06 1.98 1.94 1.95 2.00 2.07 2.12 2.14 2.14 2.09 2.03 1.96 1.89 1.87
1.68 1.90 1.76 1.54 1.31 1.22 1.28 1.51 1.69 1.68 1.60 1.53 1.49 1.43 1.44 1.38 1.24 1.16 1.15 1.18 1.18 1.21 1.27 1.34 1.40 1.45 1.55 1.68 1.81 2.01 2.10 2.05 2.03 2.01 1.97 1.99 2.05 2.11 1.98 1.92 1.95 1.86 1.75 1.81
1.98 1.94 2.04 1.91 1.54 1.44 1.47 1.63 1.73 1.68 1.71 1.74 1.71 1.61 1.44 1.36 1.29 1.22 1.15 1.17 1.26 1.32 1.36 1.36 1.37 1.46 1.57 1.72 1.92 2.13 2.14 2.03 2.03 2.08 2.11 2.11 2.09 2.14 2.19 1.99 1.95 1.83 1.74 1.70
1.69 1.76 1.83 1.76 1.64 1.62 1.68 1.72 1.78 1.76 1.70 1.75 1.76 1.63 1.45 1.35 1.31 1.28 1.29 1.29 1.39 1.45 1.40 1.34 1.34 1.45 1.59 1.77 1.98 2.15 2.17 2.15 2.15 2.14 2.17 2.16 2.05 1.98 2.00 1.92 1.77 1.69 1.62 1.52
1.72 1.78 1.93 1.92 1.86 1.79 1.97 2.02 2.01 1.95 1.87 1.79 1.72 1.60 1.50 1.53 1.53 1.45 1.43 1.48 1.45 1.41 1.33 1.33 1.35 1.36 1.44 1.60 1.87 2.10 2.15 2.20 2.23 2.21 2.17 2.12 2.01 1.92 1.86 1.82 1.69 1.54 1.46 1.38
1.72 1.70 1.81 1.79 1.85 1.85 1.99 2.06 2.06 2.06 1.99 1.86 1.69 1.54 1.40 1.42 1.62 1.66 1.66 1.70 1.58 1.44 1.36 1.30 1.27 1.23 1.27 1.38 1.55 1.81 1.95 1.89 1.85 1.86 1.87 1.84 1.75 1.67 1.59 1.53 1.51 1.52 1.38 1.20
1.55 1.67 1.72 1.78 1.77 1.68 1.72 1.76 1.85 1.88 1.84 1.76 1.61 1.50 1.37 1.33 1.40 1.50 1.63 1.67 1.68 1.58 1.43 1.32 1.34 1.33 1.23 1.31 1.42 1.49 1.53 1.62 1.54 1.46 1.46 1.47 1.45 1.44 1.38 1.37 1.40 1.46 1.38 1.17
1.57 1.71 1.72 1.74 1.73 1.66 1.58 1.61 1.69 1.73 1.74 1.69 1.57 1.41 1.28 1.29 1.41 1.49 1.53 1.47 1.39 1.35 1.28 1.21 1.22 1.24 1.20 1.30 1.34 1.29 1.21 1.17 1.19 1.11 1.16 1.26 1.30 1.27 1.25 1.28 1.33 1.38 1.29 1.12
1.38 1.48 1.53 1.53 1.45 1.50 1.52 1.58 1.62 1.54 1.57 1.54 1.40 1.29 1.25 1.36 1.52 1.58 1.44 1.27 1.20 1.20 1.17 1.08 0.99 0.93 0.97 1.01 1.00 0.96 0.89 0.87 0.84 0.81 0.91 1.01 1.01 1.04 1.12 1.18 1.20 1.22 1.13 0.99
1.27 1.25 1.23 1.21 1.11 1.19 1.30 1.36 1.45 1.44 1.43 1.36 1.25 1.27 1.32 1.39 1.45 1.42 1.24 1.17 1.15 1.12 1.04 0.94 0.93 0.78 0.76 0.75 0.78 0.77 0.78 0.81 0.80 0.79 0.86 0.87 0.87 0.94 1.09 1.17 1.17 1.16 1.08 1.02
1.09 1.01 0.98 0.98 0.94 0.99 1.11 1.15 1.12 1.16 1.18 1.18 1.25 1.30 1.26 1.25 1.19 1.16 1.12 1.11 1.05 0.92 0.83 0.80 0.77 0.79 0.79 0.76 0.77 0.76 0.80 0.82 0.84 0.79 0.76 0.79 0.85 0.91 0.97 1.01 1.03 1.04 1.03 0.99
0.97 0.89 0.87 0.92 0.93 0.90 0.95 0.95 0.91 0.93 0.99 1.04 1.12 1.15 1.12 1.10 1.04 1.06 1.17 1.15 0.99 0.82 0.75 0.78 0.71 0.69 0.69 0.73 0.71 0.68 0.74 0.79 0.83 0.87 0.86 0.86 0.88 0.91 0.93 0.91 0.91 0.91 0.94 0.99
1.09 0.96 0.90 0.89 0.92 0.91 0.89 0.85 0.79 0.74 0.78 0.85 0.85 0.89 1.00 1.07 1.02 1.04 1.09 1.12 1.01 0.99 0.80 0.70 0.63 0.62 0.64 0.64 0.65 0.73 0.75 0.80 0.87 0.94 0.95 0.95 0.97 0.99 0.97 0.96 0.96 0.93 0.96 1.00
1.11 1.05 1.00 0.99 1.01 1.03 0.91 0.84 0.77 0.75 0.76 0.79 0.79 0.86 0.96 1.05 1.05 1.06 1.04 0.95 0.88 0.97 0.88 0.78 0.77 0.74 0.71 0.66 0.76 0.87 0.86 0.86 0.87 0.90 0.94 0.96 0.99 1.01 1.02 1.01 1.06 1.04 1.03 1.07
1.17 1.08 1.03 0.99 0.94 0.97 0.97 0.89 0.81 0.78 0.77 0.77 0.77 0.83 0.96 1.03 1.03 0.96 0.95 0.93 0.86 0.86 0.84 0.89 0.90 0.88 0.84 0.77 0.84 0.89 0.91 0.95 0.97 0.94 0.89 0.91 0.94 0.93 0.99 1.02 1.04 1.05 1.05 1.07
1.29 1.18 1.06 0.97 0.94 0.92 0.92 0.89 0.82 0.75 0.72 0.76 0.73 0.75 0.82 0.93 1.01 0.96 0.89 0.81 0.77 0.75 0.79 0.85 0.87 0.93 0.90 0.89 0.89 0.88 0.90 0.99 1.05 1.01 0.96 0.97 1.00 1.01 1.02 1.01 0.98 0.97 0.99 1.03
1.35 1.25 1.12 1.00 0.90 0.85 0.86 0.88 0.89 0.86 0.81 0.81 0.78 0.79 0.84 0.83 0.84 0.90 0.95 0.89 0.82 0.78 0.81 0.83 0.82 0.88 0.87 0.92 0.97 0.98 0.97 1.01 1.03 1.01 1.02 1.05 1.10 1.12 1.03 0.94 0.88 0.87 0.87 0.87
1.22 1.15 1.06 0.99 0.89 0.82 0.82 0.86 0.90 0.90 0.88 0.90 0.87 0.87 0.96 0.95 0.93 0.92 0.88 0.84 0.78 0.76 0.78 0.78 0.76 0.77 0.75 0.74 0.76 0.78 0.81 0.85 0.90 0.96 1.01 1.04 1.04 1.02 0.95 0.88 0.85 0.82 0.82 0.79